Location: Newark
(51.7244°N, 11.1392°E)
Time: 16:16:26
(UTC+00:00)

Envisat - Visible Passes

Search period start: 09 December 2019 00:00
Search period end: 19 December 2019 00:00
Orbit: 764 x 766 km, 98.1° (Epoch: 09 December)

Date Brightness Start Highest point End Pass type
(mag) Time Alt. Az. Time Alt. Az. Time Alt. Az.
09 Dec 5.2 05:17:20 10° NE 05:21:41 28° E 05:26:01 10° SSE visible
09 Dec 3.0 16:36:59 10° SSE 16:41:59 61° ENE 16:47:01 10° N visible
09 Dec 5.3 18:17:27 10° SW 18:21:26 23° W 18:25:26 10° NW visible
10 Dec 6.0 04:41:44 10° NE 04:44:28 14° E 04:47:10 10° ESE visible
10 Dec 3.1 06:19:09 10° NNE 06:24:16 86° ESE 06:29:22 10° SSW visible
10 Dec 3.6 16:00:55 10° SE 16:05:25 33° ENE 16:09:56 10° N visible
10 Dec 4.1 17:39:30 10° S 17:44:20 44° W 17:49:13 10° NNW visible
11 Dec 4.3 05:42:30 10° NNE 05:47:23 44° E 05:52:13 10° S visible
11 Dec 3.0 17:02:22 10° SSE 17:07:27 85° WSW 17:12:35 10° NNW visible
11 Dec 5.9 18:44:35 10° WSW 18:47:16 14° W 18:49:58 10° NW visible
12 Dec 5.5 05:06:17 10° NE 05:10:18 23° E 05:14:17 10° SE visible
12 Dec 3.1 16:25:51 10° SE 16:30:45 51° ENE 16:35:41 10° N visible
12 Dec 5.0 18:05:43 10° SSW 18:10:02 28° W 18:14:23 10° NW visible
13 Dec 6.2 04:31:17 10° ENE 04:33:00 12° E 04:34:42 10° ESE visible
13 Dec 3.4 06:07:52 10° NNE 06:12:59 71° ESE 06:18:03 10° S visible
13 Dec 3.8 15:49:58 10° ESE 15:54:14 28° ENE 15:58:31 10° N visible
13 Dec 3.8 17:28:02 10° S 17:33:01 53° W 17:38:00 10° NNW visible
14 Dec 4.7 05:31:20 10° NNE 05:36:02 36° E 05:40:42 10° SSE visible
14 Dec 2.9 16:51:06 10° SSE 16:56:11 80° ENE 17:01:17 10° NNW visible
14 Dec 5.7 18:32:29 10° SW 18:35:50 17° W 18:39:12 10° NW visible
15 Dec 5.8 04:55:18 10° NE 04:58:53 19° E 05:02:27 10° SE visible
15 Dec 3.3 16:14:46 10° SE 16:19:32 42° ENE 16:24:19 10° N visible
15 Dec 4.7 17:54:05 10° SSW 17:58:39 33° W 18:03:16 10° NNW visible
16 Dec 3.7 05:56:37 10° NNE 06:01:40 58° E 06:06:40 10° S visible
16 Dec 3.4 17:16:38 10° S 17:21:41 65° WSW 17:26:46 10° NNW visible
16 Dec 6.2 19:00:48 10° W 19:01:44 10° W 19:02:40 10° WNW visible
17 Dec 5.0 05:20:11 10° NNE 05:24:40 30° E 05:29:06 10° SSE visible
17 Dec 2.9 16:39:53 10° SSE 16:44:55 66° ENE 16:49:58 10° N visible
17 Dec 5.4 18:20:35 10° SW 18:24:25 21° W 18:28:16 10° NW visible
18 Dec 6.0 04:44:26 10° NE 04:47:27 16° E 04:50:26 10° ESE visible
18 Dec 3.0 06:22:04 10° NNE 06:27:12 88° WNW 06:32:18 10° SSW visible
18 Dec 3.6 16:03:44 10° SE 16:08:19 35° ENE 16:12:55 10° N visible
18 Dec 4.3 17:42:31 10° SSW 17:47:18 40° W 17:52:06 10° NNW visible
